Zurück zum Katalog

FALCON 9 R/B

AktivHEO
NORAD 44869·ROCKET BODY·🇺🇸 United States

Gestartet Dec 17, 2019 von Cape Canaveral Space Force Station

Loading…

Nächste Überflüge (nächste 24 Stunden)

TLE

AktuellSource: Space-Track

Epoche: Sep 13, 2026, 20:10 UTC

1 44869U 19091B   26256.84042575  .00002273  00000-0  62313-3 0  9999
2 44869  26.9096 133.1204 5801196 183.7166 168.6985  4.31921221102923

Verfolge FALCON 9 R/B in Echtzeit mit AllMySat

Download on the App Store